Location: Arnouville
(48.9833°N, 2.4167°E)
Time: 09:28:15
(UTC+00:00)

Daily predictions for brighter satellites

Satellite Brightness Start Highest point End
(mag) Time Altitude Azimuth Time Altitude Azimuth Time Altitude Azimuth
Cosmos 1980 Rocket 4.1 17:26:31 10° W 17:31:14 26° NW 17:35:59 10° NNE
COSMOS 2428 4.0 17:28:41 10° SE 17:32:34 19° E 17:36:28 10° NE
Lacrosse 5 2.1 17:28:07 10° WSW 17:33:13 71° NNW 17:38:21 10° NE
Cosmos 1633 2.6 17:32:34 10° SSE 17:35:46 44° E 17:38:59 10° NNE
SL-4 R/B 1.6 17:34:58 10° WNW 17:38:27 79° NNE 17:42:07 10° ESE
Cosmos 676 Rocket 4.1 17:34:16 10° SSW 17:39:33 83° WNW 17:44:51 10° NNE
Cosmos 1244 Rocket 4.5 17:38:24 10° N 17:44:46 77° E 17:51:01 10° SSE
ADEOS 4.0 17:40:11 10° S 17:45:22 68° WSW 17:50:35 10° NNW
Lacrosse 4 Rocket 3.7 17:50:15 10° NNE 17:50:39 10° NNE 17:51:02 10° NNE
CZ-4 R/B 4.4 17:47:00 10° SSE 17:51:05 65° ENE 17:55:11 10° N
Cosmos 1461 3.7 17:48:11 10° SW 17:52:26 55° NW 17:56:54 10° NNE
Okean O Rocket 2.7 17:50:33 10° ESE 17:54:01 23° ENE 17:57:32 10° N
Cosmos 2322 4.3 17:49:01 10° S 17:54:11 36° ESE 17:59:23 10° NE
Cosmos 1825 2.2 17:51:29 10° SSW 17:55:10 78° W 17:58:53 10° N
SKYMED 2 3.6 17:51:39 10° NNE 17:55:59 62° ESE 18:00:16 10° S
CZ-4 R/B 2.5 17:53:34 10° ESE 17:56:49 24° ENE 18:00:02 10° NNE
Radarsat Rocket 4.5 17:50:49 10° SSE 17:57:02 76° WSW 18:04:08 10° NNW
Cosmos 1745 Rocket 4.1 17:51:33 10° N 17:57:37 51° ENE 18:03:35 10° SSE
YAOGAN 1 3.0 17:54:47 10° SE 17:58:48 39° ENE 18:02:51 10° N
RESURS DK-1 3.9 17:56:21 10° NW 18:00:13 39° WSW 18:04:03 10° S
DELTA 2 DEB (DPAF) 4.4 17:56:02 10° N 18:00:25 71° WNW 18:04:47 10° SSW
Cosmos 1892 4.2 17:59:27 10° SW 18:02:58 39° WNW 18:06:33 10° N
Cosmos 2058 Rocket 3.0 17:58:33 10° N 18:02:59 77° ENE 18:07:26 10° SSE
Okean 1-7 Rocket 4.4 17:59:24 10° SSE 18:03:16 30° E 18:07:11 10° NNE
IRIDIUM 106 4.3 17:59:11 10° N 18:04:24 68° E 18:09:36 10° SSE
Cosmos 1844 Rocket 4.1 17:59:39 10° NW 18:04:53 43° WSW 18:10:05 10° S
Okean-O 4.5 18:05:35 13° NE 18:05:35 13° NE 18:07:21 10° NNE
Gblst 52 Del rocket 4.2 18:02:38 10° W 18:08:17 70° N 18:12:32 17° ENE
PAYLOAD B 4.2 18:03:49 10° SSE 18:09:15 66° ENE 18:14:43 10° N
Cosmos-2242 3.9 18:07:26 10° NNE 18:11:03 26° ENE 18:14:39 10° SE
Cosmos 1340 2.7 18:07:45 10° NNW 18:11:27 78° W 18:15:06 10° S
Cosmos 44 Rocket 3.2 18:09:10 10° SSW 18:13:51 78° SE 18:18:21 12° NE
Cosmos 1869 3.7 18:11:27 10° NNW 18:15:22 67° W 18:19:18 10° S
Cosmos 1709 Rocket 4.2 18:09:30 10° N 18:15:22 45° ENE 18:21:11 10° SE
USA 215 3.5 18:09:36 10° SE 18:16:08 73° SW 18:22:41 10° WNW
PSLV R/B 3.6 18:17:39 10° SSE 18:21:19 69° ENE 18:25:06 10° N
Cosmos 1553 Rocket 4.0 18:16:02 10° S 18:22:09 87° W 18:28:25 10° N
Cosmos 1417 Rocket 4.4 18:19:53 10° S 18:26:06 76° E 18:32:16 10° NNE
CZ-4B R/B 3.1 18:24:37 10° SSE 18:29:58 69° ENE 18:35:27 10° N
Cosmos 2219 Rocket 2.1 18:26:39 10° SSW 18:32:14 83° ESE 18:37:54 10° NNE
ATLAS 5 CENTAUR R/B 3.6 18:30:06 10° NNW 18:33:12 17° NNE 18:34:47 15° NE
Cosmos 2360 Rocket 3.1 18:30:17 10° SW 18:35:45 49° NW 18:41:17 10° NNE
BlueWalker 3 1.9 18:32:00 10° WNW 18:35:53 85° NNE 18:37:32 33° ESE
Cosmos 1602 Rocket 3.8 18:33:33 10° SSE 18:37:37 43° E 18:41:44 10° NNE
Cosmos 1814 Rocket 4.1 18:33:53 10° NNW 18:39:17 85° WSW 18:44:37 10° SSE
Cosmos 1606 2.6 18:36:28 10° N 18:40:19 85° W 18:44:08 10° S
COSMO-SKYMED 1 3.7 18:39:45 10° N 18:43:54 45° WNW 18:48:02 10° SW
Lacrosse 5 rocket 4.1 18:42:41 10° W 18:44:33 14° SW 18:46:26 10° SSW
SJ-6B 3.4 18:44:58 37° ENE 18:44:58 37° ENE 18:48:31 10° N
ATLAS CENTAUR R/B 4.0 18:44:25 10° NW 18:46:03 12° NNW 18:47:39 10° N
Cosmos 2237 Rocket 3.0 18:42:23 10° SSE 18:46:55 29° ESE 18:46:55 29° ESE
USA 186 4.3 18:51:09 12° N 18:51:09 12° N 18:51:25 10° N
IGS 5A 3.5 18:46:58 29° SE 18:48:47 52° ENE 18:52:49 10° N
MOS 1-B 4.4 18:43:01 10° SSE 18:48:50 82° WSW 18:54:41 10° NNW
Cosmos 2278 Rocket 2.2 18:44:46 10° NNW 18:50:25 63° ENE 18:53:55 23° SE
Cosmos 2322 Rocket 3.9 18:47:03 10° WSW 18:51:56 30° NW 18:56:52 10° NNE
Cosmos 1758 Rocket 3.6 18:48:14 10° S 18:52:27 53° E 18:56:45 10° NNE
Cosmos 1812 Rocket 3.4 18:48:08 10° N 18:52:37 71° E 18:57:02 10° SSE
NOSS 0 Rocket 4.2 18:47:30 10° S 18:53:22 45° ESE 18:56:14 28° NE
Cosmos 1356 Rocket 3.4 18:50:10 10° S 18:53:49 50° ESE 18:53:49 50° ESE
Cosmos 1980 4.2 18:53:04 10° S 18:58:04 36° ESE 18:58:04 36° ESE
BREEZE-M DEB (TANK) 3.8 18:55:36 10° W 18:59:19 54° S 19:04:17 24° ESE
S3M 4.2 18:53:54 10° SSW 19:00:17 77° W 19:06:41 10° N
CSL-04 Debris 4.2 18:58:39 26° SE 19:01:35 56° ENE 19:06:51 10° N
Cosmos 2333 Rocket 3.1 18:56:19 10° SW 19:01:46 47° NW 19:07:18 10° NNE
Cosmos 2369 Rocket 3.9 18:58:29 10° N 19:01:37 16° NNE 19:01:37 16° NNE
CSL-04 Rocket 3.7 19:01:24 36° ESE 19:03:15 52° ENE 19:08:32 10° N
Cosmos 1626 Rocket 4.0 19:02:28 10° SSW 19:06:45 62° WNW 19:11:05 10° N
Cosmos 1943 Rocket 2.8 19:01:32 10° NNW 19:06:47 37° NE 19:06:56 36° NE
MINOTAUR 4 R/B 4.3 19:05:38 26° N 19:07:22 63° WNW 19:10:44 10° SSW
SL-16 R/B 4.5 19:06:44 10° W 19:10:46 19° NW 19:14:48 10° N
Iridium 2 4.4 19:08:51 10° NNW 19:12:23 51° W 19:15:55 10° SSW
Resurs 01 Rocket 3.8 19:17:08 15° NNE 19:17:08 15° NNE 19:18:02 10° N
Cosmos 968 Rocket 3.5 19:10:56 10° SSW 19:16:09 79° WNW 19:20:14 17° NNE
COSMOS 2428 2.8 19:10:29 10° SSW 19:16:09 77° WNW 19:20:22 19° NNE
Lacrosse 5 3.0 19:12:09 10° WNW 19:16:51 35° N 19:18:14 30° NNE
SL-4 R/B 3.2 19:14:22 10° W 19:17:32 29° SW 19:18:04 28° SSW
USA 81 4.4 19:12:46 10° SSW 19:18:00 64° W 19:23:15 10° N
Cosmos 2208 Rocket 4.0 19:13:19 10° NNW 19:18:31 81° WSW 19:21:18 28° SSE
Meteor 2-2 Rocket 4.1 19:20:53 10° NNW 19:26:36 89° ENE 19:30:32 21° S
Okean O Rocket 2.6 19:25:52 10° S 19:30:05 46° W 19:34:23 10° NNW
Lacrosse 4 Rocket 3.1 19:26:31 10° NNW 19:28:37 24° N 19:28:37 24° N
Cosmos 2315 Rocket 4.2 19:24:15 10° SSW 19:30:36 74° W 19:37:01 10° N
Cosmos 836 Rocket 4.3 19:25:39 10° NNW 19:30:56 77° ENE 19:31:03 77° E
CZ-4 R/B 2.8 19:27:45 10° SSW 19:31:32 37° W 19:35:18 10° NNW
Okean-O 3.9 19:43:07 33° NNW 19:43:07 33° NNW 19:45:36 10° NNW
Cosmos 2058 3.9 19:40:48 10° SSW 19:43:57 42° WSW 19:43:57 42° WSW
Gblst 52 Del rocket 4.3 19:54:44 10° WNW 19:59:29 66° NW 19:59:29 66° NW
Cosmos 2219 Rocket 4.2 20:12:30 10° W 20:16:54 23° NW 20:20:24 14° N
ATLAS 5 CENTAUR R/B 3.7 20:14:00 10° NNW 20:16:09 25° NNW 20:16:09 25° NNW
Cosmos 2074 Rocket 4.3 20:14:46 10° NNW 20:20:59 63° W 20:21:08 63° W
Cosmos 2184 Rocket 4.3 20:17:25 10° NNW 20:23:22 62° W 20:23:22 62° W
Cosmos 2237 Rocket 3.4 20:25:22 10° SW 20:28:51 36° WSW 20:28:51 36° WSW
Cosmos 2278 Rocket 4.2 20:29:36 10° NW 20:34:02 24° WSW 20:35:51 20° SW
Cosmos 2369 Rocket 4.2 20:41:35 10° NNW 20:43:24 21° NNW 20:43:24 21° NNW
Cosmos 1943 Rocket 3.8 20:45:17 10° NW 20:48:29 31° WNW 20:48:29 31° WNW
Lacrosse 5 4.4 20:56:02 10° NW 20:57:26 18° NW 20:57:26 18° NW
